THOR ABLESTAR DEB, 128

Orbit data source: Space-Track

THOR ABLESTAR DEB, 128 is space debris in LEO originally from a launch on Thu, 29 Jun 1961 UTC launched from the Air Force Eastern Test Range (AFETR). Debris objects in space refer to the collection of defunct objects orbiting the Earth. Examples of debris include non-operational satellites, rocket bodies, and fragments generated from explosions, collisions, or faulty payload assembly.

Loading next visibility...
Identifier
128, 1961-015N
Orbit
LEO
Country
Flag of USUS
Related business
Manufacturer
Unknown
Mission
Spacecraft
Bus & Motor
Unknown
Mass
Unknown
Launch date (UTC)
1961-06-29 (65 years ago)
Launch vehicle
Unknown
Launch site
Air Force Eastern Test Range (AFETR)
Object type
Payload
Rocket body
Debris
Shape & HBR
Unknown shape, 0.3 m
Radar Cross Section
Medium (>0.1 m² and <1 m²)

Expand to show TLE details & history
Last TLE update: 11 hours ago

TLE from 11 hours ago
0 THOR ABLESTAR DEB
1   128U 61015N   26199.77835551  .00000001  00000-0  50874-4 0  9991
2   128  66.6750 100.9680 0100064 295.0107  64.0611 14.02041907319506
Epoch: 2026-07-18T18:40Z
TLE epoch observation values (Epoch: 2026-07-18T18:40:49.916Z)
Latitude
0.00002°
Longitude
-115.8262°
Altitude
857.602 km
Speed
7.44 km/s
True Right ascension
06h 43m 52s
True Declination
0° 00' 00"
Sunlit
Object was in daylight at epoch
Visualization orbit readout
Latitude
Unknown
Longitude
Unknown
Altitude
Unknown
Speed
Unknown
Apparent Right ascension
Unknown
Apparent Declination
Unknown
Sunlit
N/A
Visualization observer readout
Local Sidereal Time
18:53:59
Azimuth
Unknown
Elevation
Unknown
Doppler factor
Unknown
Orbital elements
Apogee altitude
957.811 km
Perigee altitude
812.453 km
Semi-major axis
7,263.269 km
Eccentricity
0.01001
Inclination
66.675°
RAAN
100.968°
Arg. of periapsis
295.0107°
True anomaly
65.09785°
Mean anomaly
64.0611°
Eccentric anomaly
64.57891°
Mean motion
3.50627 °/min
Orbital period
102.67 mins
BSTAR
0.000050874
Loading maneuver chart data...
Computing Atmospheric mass density...
Loading historical data...
Loading historical data...
Loading historical data...
Loading historical data...
Loading historical data...
Loading historical data...
Loading historical data...

Documentation

Showing up to 5 results
|